This is the latest recevied weather packets stored in our database for station/object KA1AL. If no packets are shown the sender has not sent any weather packets the latest 10 day(s).
| Time | Temp. | Humidity | Pressure | Rain* | Wind** | Luminosity | Snow |
|---|---|---|---|---|---|---|---|
| 1777332402 | 17.78° C | 50% | 1022.3 hPa | 0 mm | - | 7 W/m² | - |
| 1777332099 | 17.78° C | 50% | 1022.4 hPa | 0 mm | - | 11 W/m² | - |
| 1777331797 | 18.33° C | 50% | 1022.3 hPa | 0 mm | - | 14 W/m² | - |
| 1777331493 | 18.33° C | 50% | 1022.4 hPa | 0 mm | - | 17 W/m² | - |
| 1777331191 | 18.33° C | 50% | 1022.4 hPa | 0 mm | - | 20 W/m² | - |
| 1777330888 | 18.33° C | 50% | 1022.3 hPa | 0 mm | - | 22 W/m² | - |
| 1777330585 | 18.89° C | 49% | 1022.4 hPa | 0 mm | - | 26 W/m² | - |
| 1777330282 | 18.89° C | 48% | 1022.3 hPa | 0 mm | - | 32 W/m² | - |
| 1777329980 | 18.89° C | 48% | 1022.6 hPa | 0 mm | - | 43 W/m² | - |
| 1777329679 | 18.89° C | 49% | 1022.4 hPa | 0 mm | - | 56 W/m² | - |
| 1777329376 | 17.78° C | 51% | 1022.5 hPa | 0 mm | - | 52 W/m² | - |
| 1777329074 | 17.78° C | 53% | 1022.3 hPa | 0 mm | - | 41 W/m² | - |
| 1777328771 | 18.33° C | 51% | 1022.4 hPa | 0 mm | - | 40 W/m² | - |
| 1777328468 | 18.89° C | 48% | 1022.3 hPa | 0 mm | - | 42 W/m² | - |
| 1777328167 | 18.89° C | 48% | 1022.2 hPa | 0 mm | - | 44 W/m² | - |
| 1777327865 | 18.89° C | 47% | 1022.3 hPa | 0 mm | - | 43 W/m² | - |
| 1777327563 | 18.89° C | 47% | 1022.3 hPa | 0 mm | - | 44 W/m² | - |
| 1777327260 | 19.44° C | 47% | 1022.3 hPa | 0 mm | - | 48 W/m² | - |
| 1777326957 | 19.44° C | 46% | 1022.3 hPa | 0 mm | - | 71 W/m² | - |
| 1777326655 | 20° C | 45% | 1022.1 hPa | 0 mm | - | 59 W/m² | - |
| 1777326351 | 21.11° C | 46% | 1022.4 hPa | 0 mm | - | 193 W/m² | - |
| 1777326048 | 20.56° C | 44% | 1022.4 hPa | 0 mm | - | 223 W/m² | - |
| 1777325747 | 20.56° C | 46% | 1022.7 hPa | 0 mm | - | 240 W/m² | - |
| 1777325445 | 20.56° C | 45% | 1022.7 hPa | 0 mm | - | 253 W/m² | - |
| 1777325142 | 20° C | 45% | 1022.5 hPa | 0 mm | - | 267 W/m² | - |
* Rain latest hour (hover to see other rain measurements)
** Current wind speed in m/s (hover to see current wind gust speed)